Weather in Zheleznodorozhny

Russia / Chelyabinsk Oblast     55°05′57″N   61°33′22″E
temp.,
°C
wind,
m/s
gust,
m/s
humid.,
%
clouds,
%
prec.,
mm/h
press.,
hPa
HPBL,
m
25 january, tue
tue2523:00−11sw1191100 0.0 103512
02:00−13sw1193100 0.1 103510
05:00−15sw2294100 0.1 103410
08:00−15sw2290100 0.0 103216
11:00−10wsw2389100 0.0 103180
14:00−6w258491 0.0 1029154
17:00−11wsw229060 0.0 102920
20:00−13w228999 0.0 102921
26 january, wed
wed2623:00−16w229162 0.0 10299
02:00−18sw11925 0.0 10299
05:00−19wsw11935 0.0 10299
08:00−21sw11925 0.0 10299
11:00−14ssw238666 0.0 102856
14:00−10s348614 0.0 1027135
17:00−15s229471 0.0 102712
20:00−16s3694100 0.0 102661
27 january, thu
thu2723:00−14s41091100 0.0 1025150
02:00−14s41185100 0.0 1024185
05:00−14ssw51488100 0.0 1024270
08:00−12ssw513925 0.0 1023274
11:00−11ssw511925 0.0 1023273
14:00−8ssw41091100 0.0 1023294
17:00−10ssw3594100 0.0 102478
20:00−12sw3494100 0.0 102454
28 january, fri
fri2823:00−12ssw2294100 0.0 102430
02:00−11s2295100 0.0 102417
05:00−15ssw119868 0.0 10249
08:00−20w2110078 0.0 10259
11:00−14w119782 0.0 102530
14:00−9s1192100 0.0 102496
17:00−11ese1197100 0.0 102410
20:00−10ene1197100 0.1 102313
29 january, sat
sat2923:00−11e1199100 0.2 102315
02:00−14ese1199100 0.0 10229
05:00−15e1198100 0.0 10219
08:00−16ene1198100 0.0 102110
11:00−11ese1187100 0.0 102090
14:00−9ese1182100 0.0 1018133
17:00−12e1193100 0.0 101810
20:00−15ssw1196100 0.0 10179